Time,TemperatureF,DewpointF,PressureIn,WindDirection,WindDirectionDegrees,WindSpeedMPH,WindSpeedGustMPH,Humidity,HourlyPrecipIn,Conditions,Clouds,dailyrainin,SoftwareType,DateUTC
2015-05-04 00:11:00,66.0,42.0,29.89,SSW,204,0.0,1.0,42,-99.99,,,-99.99,,2015-05-04 06:11:00,
2015-05-04 00:21:00,66.0,39.0,29.90,West,270,6.0,10.0,37,-99.99,,,-99.99,,2015-05-04 06:21:00,
2015-05-04 01:11:00,67.0,41.0,29.90,SSE,160,3.0,12.0,38,-99.99,,,-99.99,,2015-05-04 07:11:00,
2015-05-04 01:51:00,64.0,44.0,29.90,SSE,149,6.0,12.0,49,-99.99,,,-99.99,,2015-05-04 07:51:00,
2015-05-04 02:01:00,64.0,44.0,29.90,SSE,149,8.0,16.0,49,-99.99,,,-99.99,,2015-05-04 08:01:00,
2015-05-04 02:11:00,63.0,45.0,29.90,SSE,166,4.0,14.0,51,-99.99,,,-99.99,,2015-05-04 08:11:00,
2015-05-04 02:21:00,63.0,45.0,29.90,South,180,6.0,12.0,52,-99.99,,,-99.99,,2015-05-04 08:21:00,
2015-05-04 02:31:00,63.0,45.0,29.90,SE,142,5.0,15.0,51,-99.99,,,-99.99,,2015-05-04 08:31:00,
2015-05-04 02:41:00,63.0,44.0,29.90,SE,139,3.0,12.0,50,-99.99,,,-99.99,,2015-05-04 08:41:00,
2015-05-04 02:51:00,63.0,44.0,29.90,SE,144,5.0,11.0,49,-99.99,,,-99.99,,2015-05-04 08:51:00,
2015-05-04 03:21:00,63.0,43.0,29.90,SSE,161,6.0,14.0,48,-99.99,,,-99.99,,2015-05-04 09:21:00,
2015-05-04 03:51:00,62.0,43.0,29.90,SSE,163,2.0,8.0,50,-99.99,,,-99.99,,2015-05-04 09:51:00,
2015-05-04 04:01:00,62.0,44.0,29.90,SSE,147,2.0,6.0,51,-99.99,,,-99.99,,2015-05-04 10:01:00,
2015-05-04 04:21:00,61.0,43.0,29.90,SE,145,2.0,8.0,52,-99.99,,,-99.99,,2015-05-04 10:21:00,
2015-05-04 04:51:00,61.0,43.0,29.91,SE,142,1.0,6.0,51,-99.99,,,-99.99,,2015-05-04 10:51:00,
2015-05-04 05:21:00,60.0,44.0,29.91,SE,144,2.0,7.0,56,-99.99,,,-99.99,,2015-05-04 11:21:00,
2015-05-04 05:51:00,60.0,44.0,29.91,SSE,161,0.0,1.0,56,-99.99,,,-99.99,,2015-05-04 11:51:00,
2015-05-04 06:11:00,59.0,44.0,29.92,SSE,161,1.0,2.0,58,-99.99,,,-99.99,,2015-05-04 12:11:00,
2015-05-04 06:31:00,59.0,44.0,29.92,ESE,122,0.0,2.0,58,-99.99,,,-99.99,,2015-05-04 12:31:00,
2015-05-04 06:41:00,59.0,44.0,29.92,ESE,118,2.0,4.0,58,-99.99,,,-99.99,,2015-05-04 12:41:00,
2015-05-04 06:51:00,59.0,44.0,29.92,SSE,153,1.0,3.0,57,-99.99,,,-99.99,,2015-05-04 12:51:00,
2015-05-04 07:21:00,59.0,44.0,29.93,SSE,166,0.0,1.0,57,-99.99,,,-99.99,,2015-05-04 13:21:00,
2015-05-04 07:51:00,59.0,45.0,29.93,SSE,166,0.0,0.0,59,-99.99,,,-99.99,,2015-05-04 13:51:00,
2015-05-04 08:01:00,60.0,46.0,29.93,SSE,166,0.0,0.0,59,-99.99,,,-99.99,,2015-05-04 14:01:00,
2015-05-04 08:11:00,61.0,46.0,29.93,SSE,166,0.0,0.0,57,-99.99,,,-99.99,,2015-05-04 14:11:00,
2015-05-04 08:21:00,62.0,46.0,29.94,SSE,166,0.0,0.0,55,-99.99,,,-99.99,,2015-05-04 14:21:00,
2015-05-04 09:21:00,65.0,43.0,29.94,North,10,1.0,4.0,45,-99.99,,,-99.99,,2015-05-04 15:21:00,
2015-05-04 09:51:00,67.0,44.0,29.94,North,10,0.0,0.0,43,-99.99,,,-99.99,,2015-05-04 15:51:00,
2015-05-04 10:21:00,69.0,44.0,29.94,North,4,0.0,4.0,41,-99.99,,,-99.99,,2015-05-04 16:21:00,
2015-05-04 10:52:00,68.0,43.0,29.93,SW,235,0.0,3.0,40,-99.99,,,-99.99,,2015-05-04 16:52:00,
2015-05-04 11:21:00,71.0,44.0,29.93,South,189,1.0,4.0,38,-99.99,,,-99.99,,2015-05-04 17:21:00,
2015-05-04 11:51:00,71.0,43.0,29.92,WSW,241,3.0,6.0,36,-99.99,,,-99.99,,2015-05-04 17:51:00,
2015-05-04 12:22:00,72.0,43.0,29.92,North,11,2.0,6.0,35,-99.99,,,-99.99,,2015-05-04 18:22:00,
2015-05-04 12:51:00,72.0,43.0,29.91,NNE,18,0.0,4.0,35,-99.99,,,-99.99,,2015-05-04 18:51:00,
2015-05-04 13:01:00,73.0,42.0,29.90,West,276,1.0,4.0,33,-99.99,,,-99.99,,2015-05-04 19:01:00,
2015-05-04 13:21:00,74.0,43.0,29.89,ESE,120,0.0,3.0,33,-99.99,,,-99.99,,2015-05-04 19:21:00,
2015-05-04 13:51:00,73.0,44.0,29.88,NNW,328,0.0,4.0,35,-99.99,,,-99.99,,2015-05-04 19:51:00,
2015-05-04 14:51:00,73.0,44.0,29.86,SW,231,1.0,8.0,35,-99.99,,,-99.99,,2015-05-04 20:51:00,
2015-05-04 15:21:00,74.0,45.0,29.85,West,275,4.0,10.0,35,-99.99,,,-99.99,,2015-05-04 21:21:00,
2015-05-04 15:51:00,75.0,45.0,29.84,West,266,3.0,7.0,35,-99.99,,,-99.99,,2015-05-04 21:51:00,
2015-05-04 16:21:00,71.0,43.0,29.85,ESE,122,5.0,16.0,36,-99.99,,,-99.99,,2015-05-04 22:21:00,
2015-05-04 16:51:00,69.0,44.0,29.85,ENE,72,6.0,21.0,40,-99.99,,,-99.99,,2015-05-04 22:51:00,
2015-05-04 17:04:00,67.0,43.0,29.86,East,97,13.0,24.0,42,-99.99,,,-99.99,,2015-05-04 23:04:00,
2015-05-04 17:51:00,61.0,47.0,29.85,East,95,6.0,16.0,60,-99.99,,,-99.99,,2015-05-04 23:51:00,
2015-05-04 18:21:00,63.0,45.0,29.83,ESE,106,6.0,16.0,52,-99.99,,,-99.99,,2015-05-05 00:21:00,
2015-05-04 18:51:00,65.0,44.0,29.83,East,91,6.0,11.0,46,-99.99,,,-99.99,,2015-05-05 00:51:00,
2015-05-04 19:21:00,66.0,42.0,29.83,NE,42,1.0,5.0,41,-99.99,,,-99.99,,2015-05-05 01:21:00,
2015-05-04 19:41:00,66.0,43.0,29.83,NNE,23,2.0,8.0,43,-99.99,,,-99.99,,2015-05-05 01:41:00,
2015-05-04 19:51:00,65.0,43.0,29.83,NNE,23,2.0,8.0,44,-99.99,,,-99.99,,2015-05-05 01:51:00,
2015-05-04 20:01:00,65.0,42.0,29.84,North,9,3.0,7.0,43,-99.99,,,-99.99,,2015-05-05 02:01:00,
2015-05-04 20:11:00,65.0,43.0,29.84,NNE,16,0.0,6.0,44,-99.99,,,-99.99,,2015-05-05 02:11:00,
2015-05-04 20:21:00,65.0,43.0,29.84,NNE,16,0.0,2.0,44,-99.99,,,-99.99,,2015-05-05 02:21:00,
2015-05-04 20:51:00,64.0,43.0,29.84,NNE,18,0.0,2.0,46,-99.99,,,-99.99,,2015-05-05 02:51:00,
2015-05-04 21:10:00,63.0,44.0,29.84,ESE,108,1.0,3.0,49,-99.99,,,-99.99,,2015-05-05 03:10:00,
2015-05-04 21:31:00,63.0,44.0,29.84,ESE,121,1.0,3.0,50,-99.99,,,-99.99,,2015-05-05 03:31:00,
2015-05-04 21:51:00,62.0,44.0,29.84,East,101,2.0,8.0,51,-99.99,,,-99.99,,2015-05-05 03:51:00,
2015-05-04 22:01:00,62.0,43.0,29.84,ESE,102,2.0,10.0,50,-99.99,,,-99.99,,2015-05-05 04:01:00,
2015-05-04 22:10:00,62.0,43.0,29.84,SE,128,5.0,10.0,50,-99.99,,,-99.99,,2015-05-05 04:10:00,
2015-05-04 22:31:00,63.0,44.0,29.85,ESE,113,4.0,10.0,49,-99.99,,,-99.99,,2015-05-05 04:31:00,
2015-05-04 22:51:00,63.0,43.0,29.85,East,100,2.0,8.0,48,-99.99,,,-99.99,,2015-05-05 04:51:00,